GFSMW_2pvu_pres_168.txt.gz
Presure
176 167 168 163 161 165 166 169 160 181 183 200 183 170 145 169 168 164 180 166 178 173 189 195 196 189 193 192 183 191 201 181 200 191 196 201 195 193 195 192 189 180 185
174 165 164 133 168 163 141 172 199 155 156 160 168 186 176 176 185 184 186 118 183 122 196 196 199 207 193 203 187 193 202 196 206 197 195 190 197 190 183 192 194 184 182
167 172 173 152 132 166 178 180 217 194 192 172 191 192 197 195 197 151 191 200 190 216 209 214 204 194 199 193 199 201 194 196 203 192 197 194 193 196 189 185 192 190 188
171 169 172 174 181 186 210 224 223 182 198 190 171 93 192 195 164 178 195 119 210 209 183 198 195 189 228 203 206 191 187 199 189 199 207 194 192 191 192 182 193 194 194
172 179 175 180 236 226 75 203 225 196 195 186 120 81 176 186 205 194 177 189 135 187 180 174 186 193 181 181 205 199 196 205 192 191 200 201 197 195 180 197 191 185 194
178 177 99 75 141 184 201 211 213 210 206 209 176 171 184 190 171 172 177 181 190 202 214 187 185 209 195 202 188 200 211 206 201 203 215 205 190 201 198 193 192 184 191
181 181 189 190 228 216 196 208 209 207 203 209 150 200 210 178 183 182 183 195 190 199 201 199 201 191 211 180 202 195 181 176 215 210 200 200 222 190 185 202 189 181 192
189 179 213 225 208 218 205 195 194 200 199 196 189 192 198 202 197 197 188 192 198 205 196 219 186 187 192 199 177 179 170 172 221 207 216 213 194 219 205 183 199 197 197
230 230 228 229 221 198 196 201 207 204 197 203 202 193 193 189 180 173 173 176 225 209 207 210 208 191 182 173 204 167 208 186 203 216 179 238 211 209 202 205 196 199 187
230 224 231 220 205 218 193 192 198 201 198 202 209 204 207 212 203 246 248 236 231 238 229 223 211 217 208 207 213 227 213 211 199 205 217 193 200 205 202 199 201 183 197
231 229 223 210 212 193 197 202 204 210 213 212 210 214 230 245 251 245 251 247 245 241 237 234 238 233 230 234 232 225 226 223 219 225 225 218 218 207 210 206 205 195 197
206 208 215 179 208 193 199 203 209 217 213 215 226 227 251 255 255 248 242 233 240 240 243 241 240 235 242 249 246 230 235 235 236 239 241 230 225 226 215 202 201 201 213
201 211 201 213 200 178 170 209 218 220 224 223 233 266 259 253 248 253 245 245 238 241 239 236 239 242 253 251 249 250 247 250 248 253 244 239 244 245 229 227 226 221 201
202 209 205 213 214 216 194 217 228 227 235 230 274 267 259 267 256 248 243 246 242 244 242 251 253 257 258 254 254 259 265 261 256 257 256 255 252 248 243 241 232 230 220
220 225 223 221 219 221 220 233 243 235 237 286 284 275 275 113 254 251 251 94 257 258 258 254 256 262 260 262 274 280 280 273 272 277 281 284 298 289 276 271 265 264 244
215 216 222 224 218 231 217 235 245 282 288 279 273 273 266 260 261 260 259 270 271 154 270 280 297 298 292 276 268 335 379 387 377 379 386 336 274 278 282 286 290 283 281
222 225 227 209 225 249 286 285 271 292 275 253 266 266 267 271 270 270 272 172 141 275 294 293 321 333 326 328 360 359 361 345 349 343 350 373 370 389 378 315 266 270 273
231 227 220 230 251 321 280 315 295 296 275 267 272 269 273 272 269 279 276 278 193 290 301 326 311 328 328 345 347 327 339 328 330 324 327 389 356 379 430 337 310 297 295
250 278 283 275 272 274 289 305 291 286 280 276 275 281 276 279 281 277 278 302 312 311 312 309 305 315 332 334 324 310 316 313 315 312 330 360 335 390 329 333 318 317 279
279 273 267 274 279 264 319 299 282 289 91 283 267 270 283 292 296 295 308 302 305 304 304 328 320 339 324 331 305 305 303 292 298 307 356 328 350 333 319 315 317 301 278
265 272 270 270 268 317 295 279 280 279 276 282 292 295 302 298 307 305 306 301 305 318 326 333 326 321 343 337 305 293 301 288 293 310 305 321 312 309 328 301 292 291 294
271 272 264 260 290 251 236 277 284 305 297 298 303 302 300 299 304 303 303 326 326 328 327 314 322 321 340 333 304 294 288 304 313 304 334 306 290 300 283 281 280 268 267
264 263 271 310 137 284 290 293 299 304 304 298 295 295 302 301 295 320 325 317 317 312 316 324 345 401 427 335 299 280 276 269 315 319 301 292 272 282 269 269 276 270 270
281 294 296 304 300 186 284 296 302 299 298 296 295 300 306 318 328 316 307 304 296 316 341 360 377 412 351 325 293 280 268 271 290 283 282 296 295 263 277 262 265 265 276
299 300 314 311 301 295 299 300 300 300 297 298 298 315 317 318 299 306 300 211 280 345 378 406 401 345 335 312 288 275 268 268 274 270 265 278 289 272 265 258 260 265 273
306 314 305 310 304 310 299 294 293 293 291 338 347 325 308 308 295 302 309 331 334 335 375 364 343 327 319 301 284 282 274 263 265 270 262 252 270 279 242 256 269 252 262

GFSMW_2pvu_pres_171.txt.gz
Presure
178 176 177 183 161 172 161 166 155 161 143 145 160 166 182 184 185 183 184 187 210 194 172 198 189 191 203 190 211 215 202 196 182 192 189 195 200 193 202 196 193 199 195
180 166 174 167 175 159 164 150 152 146 158 159 167 177 200 191 186 194 114 189 189 191 190 160 170 188 202 217 200 197 182 164 191 189 200 199 187 186 193 201 191 197 195
166 166 162 165 161 153 169 158 174 157 121 156 174 196 199 185 187 192 177 197 179 76 81 181 187 197 194 174 168 195 197 213 179 195 184 184 198 191 188 204 194 192 200
172 160 170 179 181 183 113 180 93 228 190 173 190 207 189 205 186 83 104 186 195 172 180 182 175 188 173 179 183 178 192 198 205 201 184 192 185 193 191 193 197 189 205
86 173 176 175 145 67 184 74 233 239 223 219 225 224 212 187 186 113 202 190 185 187 183 194 193 174 180 187 188 191 188 188 200 204 193 191 180 173 170 202 200 194 194
182 181 173 182 189 238 246 228 225 214 219 217 222 216 215 213 189 191 121 189 193 191 181 189 196 185 188 189 186 178 178 184 197 196 205 204 188 193 174 173 164 195 195
182 187 183 188 229 238 231 226 227 224 222 220 218 214 204 199 199 197 201 192 183 177 182 173 171 185 183 173 183 182 179 188 199 174 199 192 186 170 183 184 185 171 183
191 208 204 231 215 193 227 230 226 218 220 224 215 220 202 188 190 185 187 188 187 184 195 194 195 187 189 187 183 170 207 200 197 192 216 199 202 178 182 172 175 161 164
194 213 235 225 199 204 204 214 214 195 200 206 209 215 193 194 201 203 205 207 209 216 169 212 202 200 211 207 196 228 226 223 215 217 204 207 198 197 207 206 193 192 197
262 235 231 197 198 202 203 200 201 191 202 203 199 184 163 165 196 202 201 211 223 211 227 226 250 255 167 257 241 233 162 228 226 232 219 210 222 224 207 218 199 208 198
247 228 199 193 194 209 205 204 203 204 200 211 200 200 200 215 177 213 205 221 229 229 229 246 260 263 260 258 254 253 238 231 230 227 216 222 232 228 239 226 225 211 212
191 193 201 196 194 203 187 214 211 163 205 220 175 175 223 184 184 230 223 186 235 240 258 260 262 253 250 244 108 253 249 247 247 247 246 245 236 234 230 230 229 226 227
198 205 189 204 186 195 207 216 193 220 172 174 187 236 236 245 227 227 236 243 253 269 268 264 247 256 253 254 252 252 252 258 247 244 251 248 243 243 241 246 250 255 242
205 202 200 199 207 215 216 229 222 232 229 228 245 243 249 224 236 232 307 298 286 269 273 267 262 263 255 254 256 255 253 258 258 259 254 257 262 268 264 264 262 252 248
192 207 205 218 229 227 228 232 232 236 238 241 244 255 260 282 301 314 300 283 283 277 258 142 247 259 263 262 260 266 265 266 272 272 273 279 278 275 276 271 266 270 272
194 212 229 232 230 228 227 242 238 240 250 293 279 287 303 303 334 308 295 287 279 275 263 267 268 269 277 280 284 289 288 315 311 309 335 349 293 288 282 276 280 282 285
221 231 234 239 221 237 249 251 271 278 279 280 291 281 280 331 312 291 284 289 286 279 278 283 286 281 290 292 296 313 328 325 322 329 368 356 348 355 344 351 359 349 369
238 242 227 235 264 261 259 270 312 298 279 283 276 280 324 316 302 297 293 293 293 287 277 283 294 293 297 304 311 313 309 309 316 348 355 333 316 316 319 325 328 329 334
234 240 234 263 253 260 256 247 267 299 294 275 279 304 311 296 289 287 283 282 290 293 297 298 304 303 304 305 300 301 316 343 351 339 329 314 302 297 301 306 316 349 334
245 240 261 260 249 258 252 283 270 264 267 275 99 314 272 290 286 282 293 292 299 301 299 300 299 297 298 299 317 332 335 327 327 356 310 303 294 291 296 334 340 335 326
254 258 253 257 238 268 270 266 237 126 285 272 307 295 292 296 306 303 308 298 296 297 300 300 296 309 332 328 329 326 321 324 320 323 303 300 293 286 292 302 342 314 299
260 253 250 249 255 263 261 272 262 293 303 302 307 297 301 302 308 301 297 299 298 300 304 330 325 322 321 320 328 347 373 400 361 308 299 286 315 311 305 324 318 310 304
257 252 264 267 267 274 268 267 276 304 300 301 301 294 297 310 303 298 291 297 300 346 322 313 311 316 327 357 375 428 436 368 313 296 281 296 289 287 308 297 295 292 285
263 269 214 278 286 273 281 275 320 302 307 309 299 299 309 300 294 293 294 316 321 314 312 306 316 334 185 420 402 372 345 310 294 287 292 275 307 308 290 289 285 281 280
271 282 286 289 279 284 289 318 310 296 307 317 315 305 294 298 299 318 340 319 309 306 314 323 329 370 376 349 334 329 301 294 296 271 283 266 265 282 282 292 292 274 264
288 299 300 290 300 328 310 306 306 316 315 306 298 300 299 355 341 320 317 309 328 322 316 334 330 354 331 325 318 312 290 286 284 274 272 265 265 264 265 270 292 275 270

GFSMW_2pvu_pres_174.txt.gz
Presure
176 172 184 174 174 166 161 163 174 172 178 167 175 177 142 141 200 191 206 152 161 166 183 190 192 176 187 178 153 189 151 155 192 209 166 186 205 179 186 185 201 193 203
168 182 176 190 163 180 178 176 179 173 193 74 74 89 230 202 200 224 189 207 184 122 188 172 174 168 111 201 182 197 193 186 176 200 216 180 191 201 201 189 190 184 195
185 200 192 158 168 170 169 176 183 186 86 218 169 269 223 225 206 205 207 138 188 202 199 150 183 184 189 188 185 193 189 193 155 188 194 159 131 200 195 202 195 188 186
190 180 191 159 171 177 181 179 176 192 76 203 207 223 252 229 204 200 197 200 190 164 106 195 175 184 191 192 191 194 191 191 183 170 156 179 187 172 167 197 196 205 169
181 190 167 172 190 168 177 181 188 239 242 226 209 206 236 239 240 224 205 194 202 206 192 188 188 200 178 187 194 189 181 173 185 179 167 180 187 187 187 180 178 202 199
167 169 185 169 184 181 174 182 225 247 229 218 198 199 211 215 225 224 225 224 222 208 195 205 210 190 183 188 182 184 189 180 175 178 195 198 183 188 185 184 184 181 195
184 158 172 183 181 174 180 187 197 238 225 198 195 204 198 208 201 195 201 218 212 206 218 203 196 187 193 188 186 183 181 182 184 188 183 173 185 185 192 190 177 191 176
160 170 171 178 182 190 175 197 239 207 193 191 196 192 194 202 204 192 174 202 204 208 210 188 187 187 191 196 197 199 198 193 193 193 194 196 208 195 192 198 201 192 203
161 187 195 182 185 187 205 236 227 201 191 200 193 196 191 187 206 207 207 208 215 219 213 201 180 185 186 182 188 183 184 180 203 209 192 210 219 212 207 205 206 201 207
179 174 180 183 220 218 247 237 208 194 192 193 202 192 197 174 225 197 226 211 234 190 197 223 230 235 234 230 193 203 233 229 238 233 233 211 259 250 243 239 229 225 223
177 176 184 198 255 249 235 198 191 200 199 201 189 195 219 225 204 234 216 191 181 212 235 227 238 245 248 240 221 228 247 241 241 248 259 261 255 255 250 241 235 235 226
179 196 200 252 218 217 209 197 198 191 199 210 217 225 228 229 231 218 243 244 250 253 260 260 260 248 257 244 265 253 280 276 266 265 262 258 251 252 246 253 250 245 239
210 209 226 231 218 210 208 189 195 192 194 217 230 190 223 231 242 229 243 262 259 261 281 290 294 298 315 310 296 282 256 268 266 264 258 256 260 256 254 254 255 252 251
214 255 239 220 200 204 191 202 194 193 210 225 234 199 240 238 254 284 311 322 301 281 308 220 289 322 307 295 284 276 270 272 268 264 258 254 255 257 259 255 258 262 261
243 228 221 201 212 198 193 108 205 214 234 235 231 250 238 269 276 285 291 295 316 298 294 295 316 308 295 286 280 273 270 268 272 264 265 264 265 266 266 266 266 269 273
227 221 208 208 190 198 202 190 228 236 244 247 259 283 284 268 271 277 275 330 304 277 266 320 308 297 289 284 288 288 284 206 274 275 287 288 286 285 292 290 296 306 306
221 208 198 195 202 205 213 224 233 238 246 277 272 266 268 264 273 254 269 288 309 295 264 306 299 291 289 291 289 288 284 280 278 284 291 293 299 312 323 331 325 360 360
201 203 199 201 207 213 233 236 233 254 253 272 266 262 259 263 270 273 285 276 312 296 298 297 292 288 294 291 291 293 297 295 310 314 316 319 318 317 320 354 353 344 335
202 217 212 212 221 226 237 241 261 249 270 256 252 252 261 276 281 175 276 286 303 295 293 295 299 306 314 301 303 305 306 303 305 308 309 309 315 315 350 346 332 310 309
211 213 212 225 221 237 235 253 247 275 251 256 252 265 273 289 283 281 281 308 304 296 292 300 310 304 304 296 299 302 303 304 305 311 334 342 341 342 337 331 306 304 293
211 213 221 236 234 228 253 233 275 221 254 253 263 129 274 292 269 279 307 303 296 298 292 307 304 297 296 298 301 323 335 328 327 322 323 329 324 340 345 311 301 298 302
216 222 234 236 105 258 250 266 262 252 257 261 269 270 280 291 312 305 306 313 307 301 306 303 298 297 297 318 333 322 317 317 335 364 401 438 384 400 319 304 297 294 281
223 237 240 99 256 250 265 294 284 260 263 272 263 273 291 309 312 306 307 306 305 313 303 300 298 300 326 313 308 175 340 399 412 401 418 422 371 313 305 287 317 308 304
237 249 252 261 261 279 273 271 267 266 273 271 274 279 316 306 307 317 323 315 304 301 301 304 330 320 316 321 329 350 352 341 340 338 318 308 304 292 293 293 285 280 295
249 259 268 285 277 254 265 268 274 275 279 280 324 312 308 314 320 311 301 302 306 324 346 323 314 317 307 332 345 339 322 320 310 296 296 293 290 290 289 301 307 292 286
275 283 279 275 281 273 276 278 279 285 321 330 320 319 315 311 297 300 307 339 334 318 304 325 300 302 311 316 348 317 311 308 296 286 287 281 274 277 275 266 272 263 267

GFSMW_2pvu_pres_180.txt.gz
Presure
161 187 171 167 170 163 165 162 170 176 184 186 189 195 200 173 176 72 88 80 219 247 252 232 220 195 220 212 209 195 178 187 186 176 175 178 179 177 192 179 184 142 197
163 159 172 163 165 165 163 170 169 61 181 184 198 173 196 178 164 183 74 73 199 242 232 227 222 201 194 190 192 203 196 192 175 172 173 185 190 185 185 187 160 153 198
166 173 159 164 163 163 163 166 169 177 173 187 180 196 165 159 180 184 178 247 266 240 217 195 192 191 192 190 185 181 184 206 188 180 180 185 181 172 172 167 185 190 179
165 135 160 163 161 162 161 163 165 177 177 191 186 200 162 177 174 176 241 227 233 220 205 177 191 192 198 220 220 191 176 127 178 181 188 203 183 173 198 200 204 210 198
165 164 166 165 164 152 162 163 168 179 185 182 187 164 180 179 176 237 239 219 222 192 211 203 193 185 182 197 178 184 184 209 231 190 198 178 185 193 195 198 198 201 201
167 166 166 164 156 154 166 170 175 187 187 187 204 183 173 177 173 243 234 224 207 212 202 196 202 201 183 190 209 169 196 251 197 201 208 213 217 214 214 196 183 187 193
164 161 161 159 166 169 174 170 178 189 180 199 186 176 178 175 197 238 231 206 200 189 172 195 209 212 225 235 236 156 142 208 256 218 179 210 147 207 208 218 201 207 191
154 158 168 173 169 173 166 172 189 189 192 202 179 167 172 181 227 234 220 207 209 201 195 207 210 211 227 233 237 241 268 260 265 266 265 263 264 256 204 211 210 214 227
166 173 174 171 167 172 187 192 185 187 189 188 176 171 177 173 244 227 215 209 203 205 201 215 209 227 234 246 217 261 273 297 289 291 292 287 277 283 265 268 259 190 210
175 169 171 178 182 176 181 186 196 188 201 175 171 170 177 212 245 231 231 201 216 201 204 214 229 232 246 272 270 285 286 272 275 280 331 304 301 226 333 314 229 247 257
170 170 176 173 175 178 193 182 198 204 189 157 171 185 202 211 241 223 194 204 207 202 213 228 231 243 264 264 295 269 262 256 266 280 304 330 329 334 322 314 292 323 304
162 172 180 191 180 183 179 191 183 171 162 189 184 189 203 213 219 221 202 202 205 217 222 227 243 254 261 188 276 256 265 253 256 271 295 339 328 321 306 300 291 296 305
174 175 182 180 183 183 188 187 195 195 194 180 189 204 205 206 207 209 197 208 215 226 220 242 249 257 253 270 262 256 254 254 253 267 306 333 312 142 315 309 304 303 295
178 204 189 190 181 185 158 201 173 186 185 201 192 208 199 203 210 211 212 205 205 233 237 244 253 253 263 268 256 249 257 267 276 273 324 317 301 297 300 301 296 290 290
198 187 181 183 182 185 195 185 181 189 199 202 204 211 211 202 212 222 217 216 229 241 248 258 247 266 265 264 250 242 253 274 271 330 310 308 297 297 295 295 293 287 281
177 187 176 174 183 197 188 196 192 194 203 199 212 198 205 207 213 238 215 227 242 243 252 247 254 267 254 254 263 266 264 277 276 323 301 294 296 306 297 300 307 290 289
200 187 156 192 188 191 198 188 197 189 199 205 211 215 204 245 239 220 231 241 248 271 244 259 270 252 253 270 273 272 266 279 305 311 295 307 296 303 303 311 310 308 305
177 174 183 190 202 192 187 195 194 203 201 211 201 221 237 232 226 228 235 249 248 256 262 264 253 260 261 272 263 268 282 310 313 302 311 296 296 304 307 305 302 303 304
189 192 184 195 186 202 191 190 202 208 207 217 222 217 243 218 224 243 250 247 259 259 255 259 273 254 273 275 271 285 318 311 307 310 315 308 307 300 298 299 298 300 303
181 183 187 180 194 195 186 198 201 212 202 203 217 239 223 223 247 259 256 256 253 261 274 270 257 268 274 274 298 326 306 322 324 316 308 302 297 303 306 331 342 337 326
188 186 192 193 193 183 192 197 206 201 206 135 216 241 223 244 255 256 258 262 274 276 282 271 269 277 277 291 325 316 329 312 303 302 306 315 327 334 136 343 370 359 355
185 183 195 193 191 193 196 208 194 212 223 217 179 237 246 257 264 263 265 269 285 265 272 278 276 285 299 325 336 323 309 314 327 341 341 313 308 325 347 328 330 337 362
180 193 193 193 192 202 204 204 213 223 219 243 249 273 266 272 277 278 280 296 269 278 280 287 292 327 331 331 316 324 353 349 315 312 301 311 353 327 318 311 311 308 310
193 191 199 190 203 200 206 215 200 217 249 266 273 278 283 275 290 294 274 284 289 295 303 320 340 332 322 312 354 331 323 330 293 290 324 340 324 318 306 296 294 289 291
197 196 201 206 205 213 216 223 228 250 283 285 288 285 290 293 295 286 296 300 311 316 359 339 331 318 316 347 331 332 313 288 288 276 366 335 321 310 301 294 292 291 285
193 205 208 211 216 219 223 235 266 286 294 290 296 301 289 295 307 318 364 373 367 359 331 326 313 316 336 328 315 305 286 283 273 274 279 309 327 314 299 287 289 290 280

GFSMW_2pvu_pres_186.txt.gz
Presure
144 141 147 139 151 150 149 158 157 169 167 163 182 167 166 164 163 170 169 163 174 189 202 192 160 184 175 193 170 153 196 138 256 235 180 179 191 193 191 152 184 145 184
134 145 143 149 151 156 162 156 155 171 172 181 167 168 162 155 165 170 162 171 180 187 175 191 175 200 210 186 160 238 204 190 193 188 234 244 184 193 191 186 172 181 173
142 149 148 147 156 157 165 159 167 163 168 170 171 170 169 171 171 165 168 172 205 197 163 193 183 180 190 165 214 256 267 198 205 185 199 194 203 198 190 210 186 168 206
127 146 153 139 146 153 159 163 176 168 169 162 167 166 171 170 168 166 170 171 187 198 155 196 172 154 199 194 215 169 245 234 241 190 250 185 194 194 191 199 205 236 204
158 135 149 144 156 166 166 176 172 163 169 175 168 167 169 165 162 167 179 209 183 174 186 154 164 197 194 193 175 216 217 248 224 238 258 255 257 264 270 280 221 204 205
144 147 158 160 166 173 176 168 167 168 173 170 170 171 169 167 168 176 164 189 175 171 163 154 183 168 189 190 204 207 213 240 244 240 254 260 255 256 262 279 134 280 295
143 152 160 156 179 179 172 166 171 177 174 175 170 170 169 168 175 169 189 180 166 172 170 161 177 200 181 197 200 209 209 218 249 251 253 253 263 265 267 280 282 295 299
161 172 160 181 185 177 174 177 174 176 171 168 171 171 175 174 168 189 176 186 169 181 173 176 195 196 190 202 199 205 222 246 248 244 256 253 257 255 262 273 292 285 280
170 162 190 195 180 179 176 175 176 173 170 168 170 168 174 176 191 181 147 179 185 170 185 190 181 177 166 194 203 205 225 240 245 257 251 254 256 257 264 276 267 270 262
192 197 191 177 188 180 175 177 177 172 172 175 171 174 193 153 175 183 170 184 161 180 163 180 186 185 185 199 201 208 229 270 250 252 260 255 258 263 254 269 263 259 260
196 188 183 182 178 179 178 176 177 172 172 174 173 186 189 179 166 163 180 188 165 196 170 197 174 188 200 201 203 207 245 225 264 257 258 260 260 264 263 248 262 271 297
189 168 164 189 181 182 179 169 170 176 175 172 182 186 189 174 177 202 145 157 203 177 193 197 164 188 203 205 205 230 252 277 264 259 263 272 269 261 254 272 270 267 278
168 174 188 182 188 183 169 163 175 177 174 178 179 182 202 181 170 194 192 178 180 198 188 181 202 199 201 213 217 240 271 264 262 263 261 266 262 265 257 273 266 277 285
176 183 183 183 172 171 172 168 181 191 177 183 174 182 171 198 197 177 191 202 198 190 199 202 199 203 213 187 234 273 261 239 262 267 272 266 267 264 272 280 276 281 312
189 188 185 185 166 170 176 189 202 194 173 185 179 183 180 190 192 204 156 209 177 192 203 194 207 210 211 220 241 261 272 264 271 265 268 271 266 267 270 278 283 298 352
167 192 195 163 191 185 176 186 175 203 186 172 180 160 182 196 199 197 189 175 197 204 203 210 201 213 211 223 276 271 276 278 266 273 274 270 268 276 286 290 306 345 326
197 185 174 187 181 179 181 127 199 193 188 183 157 182 198 188 201 200 190 203 195 206 202 202 210 214 214 243 275 278 275 280 279 280 265 276 280 285 295 307 344 327 325
146 191 181 183 184 185 187 187 203 189 188 144 189 198 205 207 201 204 204 193 206 204 195 205 211 213 245 282 283 278 282 283 274 275 280 284 292 299 314 341 334 308 313
186 187 187 177 191 187 189 204 175 191 200 198 199 192 181 201 196 203 206 190 201 201 199 210 207 221 293 283 291 293 281 283 283 285 295 305 309 345 340 329 316 324 344
183 184 189 187 198 195 190 188 201 194 199 204 193 190 203 194 191 203 190 195 197 200 214 211 219 236 305 295 285 275 291 294 302 317 303 309 343 333 321 318 350 328 308
182 184 184 188 192 185 186 200 192 207 180 192 184 196 186 190 204 199 174 201 205 215 213 221 238 303 313 280 287 296 306 315 319 339 357 340 333 313 323 337 325 287 303
183 179 182 191 185 194 185 191 194 192 187 201 199 198 193 200 204 184 203 207 216 213 224 306 307 301 282 314 322 324 399 385 366 346 341 329 312 336 332 313 287 291 281
192 210 189 180 196 201 198 189 194 193 199 201 189 201 201 203 201 206 209 216 221 228 307 309 290 283 333 356 381 387 392 363 344 324 322 316 339 319 295 282 280 282 279
197 183 195 193 200 202 187 191 192 199 198 185 201 202 203 200 213 211 216 229 292 314 312 294 316 384 375 361 346 334 363 311 325 319 318 320 308 293 283 279 279 289 319
188 193 195 188 197 192 190 177 201 192 194 203 194 202 207 213 216 219 232 307 319 313 289 401 385 370 411 400 382 353 336 324 316 321 315 303 291 284 280 277 278 293 293
186 187 185 193 193 191 200 192 187 203 205 200 205 204 214 216 222 238 308 315 303 291 399 432 499 398 390 389 335 336 322 313 324 315 300 292 287 278 273 277 286 283 286